Location: Groß Eilstorf
(52.8200°N, 9.4552°E)
Time: 05:04:46
(UTC+00:00)

Meteor 1-11 Rocket - Pass Details

Date: 15 May 2026
Orbit: 829 x 915 km, 81.2° (Epoch: 6 June)

Event Time Altitude Azimuth Distance (km) Brightness Sun altitude
Rises 22:59:27 0° 345° (NNW) 3,462 8.5 -18.0°
Reaches altitude 10° 23:01:55 10° 342° (NNW) 2,508 7.4 -18.0°
Maximum altitude 23:07:33 66° 262° (W) 924 3.8 -18.1°
Enters shadow 23:10:12 31° 190° (S) 1,437 4.3 -18.1°
